Location: Vancouver
(49.2500°N, 123.1330°W)
Time: 04:26:24
(UTC-07:00)

deb Explorer IX - Visible Passes

Search period start: 23 August 2014 00:00
Search period end: 02 September 2014 00:00
Orbit: 559 x 1218 km, 38.8° (Epoch: 21 August)

Date Brightness Start Highest point End Pass type
(mag) Time Alt. Az. Time Alt. Az. Time Alt. Az.
24 Aug ? 04:57:29 10° S 04:59:39 12° SSE 05:01:43 10° SE visible
25 Aug ? 04:54:09 10° SSW 04:57:16 15° SSE 05:00:08 10° SE visible
26 Aug ? 04:51:59 13° SSW 04:54:53 18° SSE 04:58:16 10° ESE visible
27 Aug ? 04:49:48 15° SSW 04:52:30 21° SSE 04:56:16 10° ESE visible
28 Aug ? 03:04:53 11° SE 03:04:53 11° SE 03:05:08 10° SE visible
28 Aug ? 04:47:35 18° SSW 04:50:07 24° S 04:54:11 10° ESE visible
29 Aug ? 03:02:40 13° SE 03:02:40 13° SE 03:03:35 10° ESE visible
29 Aug ? 04:45:22 20° SSW 04:47:45 26° S 04:52:01 10° ESE visible
30 Aug ? 03:00:27 14° SE 03:00:27 14° SE 03:01:45 10° ESE visible
30 Aug ? 04:43:09 22° SSW 04:45:23 28° S 04:49:49 10° ESE visible
31 Aug ? 02:58:15 16° SE 02:58:15 16° SE 02:59:45 10° ESE visible
31 Aug ? 04:40:57 24° SSW 04:43:00 29° S 04:47:34 10° ESE visible
01 Sep ? 02:56:05 17° SE 02:56:05 17° SE 02:57:40 10° ESE visible
01 Sep ? 04:38:48 25° SSW 04:40:36 30° S 04:45:17 10° SE visible
